Theta_e
299 301 300 300 302 301 296 296 294 297 298 300 310 312 313 315 316 316 316 316 315 314 312 311 309 306 305 304 302 302 304 302 302 302 302 303 302 302 302 302 302 302 302 302
298 300 300 299 301 301 301 299 300 299 298 308 313 315 314 315 316 316 317 317 317 314 312 311 308 306 306 303 302 304 301 302 303 304 303 301 301 302 301 301 301 301 301 301
291 299 299 295 300 300 300 302 301 297 301 311 313 314 314 315 317 316 318 316 315 313 312 310 308 307 303 303 302 301 302 304 305 304 302 302 301 302 300 299 299 299 300 299
292 294 288 300 303 304 303 305 307 308 310 312 315 315 315 316 314 318 317 316 315 314 311 308 306 305 304 302 302 301 302 304 303 302 301 300 299 300 298 297 298 298 299 299
292 290 296 300 303 302 302 301 308 310 312 312 315 316 313 316 320 319 318 318 315 312 309 306 304 302 301 300 300 303 304 302 302 302 301 301 299 298 298 297 297 296 299 298
294 290 289 298 306 312 307 298 309 312 311 314 312 305 308 316 318 316 315 313 310 308 306 304 301 300 298 300 302 301 301 302 302 301 301 298 297 298 296 296 297 299 299 296
293 293 296 306 310 311 297 298 311 313 312 309 307 311 313 315 313 313 311 309 308 306 303 301 299 300 300 300 299 301 302 302 302 302 300 298 298 296 296 297 298 296 296 295
295 292 292 310 308 302 304 308 312 313 313 313 314 315 314 313 311 310 308 307 306 303 300 300 301 300 299 297 300 302 301 303 302 301 302 301 297 295 296 296 296 292 293 293
299 298 305 309 311 314 312 312 312 315 316 316 314 313 313 311 310 309 308 305 304 302 300 299 300 300 299 300 301 302 302 299 299 299 299 298 295 296 296 294 293 293 293 291
301 304 307 310 316 316 316 315 317 319 318 317 314 314 311 311 309 307 305 303 302 300 299 298 300 302 303 302 303 302 299 299 299 296 295 295 296 296 295 293 293 293 292 291
302 307 309 311 314 316 317 319 319 319 319 318 316 312 311 310 308 306 305 303 302 299 298 299 300 302 303 303 303 301 300 300 298 296 294 294 295 294 293 291 293 292 292 292
299 308 308 308 312 316 318 318 319 318 317 317 314 312 311 309 307 305 304 302 300 299 299 300 301 303 303 303 301 301 299 299 297 295 294 292 292 294 293 293 293 294 294 292
308 314 312 314 317 318 319 319 319 318 317 314 314 312 310 307 306 306 304 302 301 301 301 303 303 303 304 303 302 301 297 297 297 296 292 292 293 293 292 293 294 294 292 292
312 312 310 313 312 319 319 320 318 319 317 315 313 312 311 308 306 304 302 302 302 305 304 302 303 303 303 303 300 300 299 298 297 293 292 292 293 294 294 293 292 292 293 293
312 312 312 316 318 317 319 319 316 315 314 313 313 311 308 305 304 303 303 305 306 304 303 304 303 301 303 303 300 299 298 298 296 293 292 293 294 294 293 292 291 291 291 291
312 312 314 315 316 316 316 316 313 312 313 311 310 309 308 306 304 305 305 306 302 300 302 303 301 302 303 300 296 295 295 295 294 292 293 293 294 293 292 291 291 290 290 289
308 307 310 312 313 314 313 314 313 312 311 311 310 309 307 305 304 304 303 304 302 302 302 302 301 303 301 297 292 291 292 293 289 293 294 292 294 294 293 291 290 290 290 291
310 313 312 313 315 315 313 314 313 312 311 311 310 307 305 304 302 303 303 304 303 302 302 302 302 301 301 299 293 292 292 294 295 295 294 293 294 294 293 292 290 290 290 290
310 312 313 313 316 315 314 313 313 312 311 310 307 305 305 305 305 304 304 303 301 299 298 298 299 301 299 296 293 291 293 295 295 294 293 292 294 294 292 291 290 290 290 290
311 313 315 315 318 316 314 314 313 312 311 309 307 306 305 305 305 303 303 302 301 302 298 298 301 296 292 293 293 295 296 295 294 293 294 293 294 294 292 290 291 291 290 290
305 307 311 313 315 316 315 314 313 311 311 310 308 306 306 305 305 304 302 300 299 299 298 296 295 292 291 291 294 295 294 292 293 293 294 293 294 293 292 291 291 291 290 290
308 306 305 309 314 313 314 313 313 312 311 310 310 308 306 304 303 302 302 303 299 290 296 293 291 287 289 290 295 294 293 294 293 293 294 294 293 292 291 291 291 291 290 294
307 309 308 306 308 312 313 313 314 313 311 310 308 307 305 305 305 301 298 297 296 291 293 291 286 285 286 294 295 294 294 294 293 294 293 293 293 292 291 291 290 290 294 294
306 307 308 310 303 305 308 309 312 312 311 311 309 308 306 303 298 299 298 290 287 290 291 289 288 286 289 294 292 292 292 292 292 293 293 290 292 291 291 291 292 295 294 293
306 305 307 308 307 307 308 309 311 311 310 308 306 305 306 305 302 296 295 292 287 289 289 286 288 289 294 293 293 292 291 291 290 291 292 292 291 291 291 292 294 294 293 293
304 304 306 310 307 307 308 310 309 310 308 306 304 302 301 299 297 296 295 292 291 288 292 293 295 295 293 293 293 292 291 290 291 289 289 291 291 291 291 292 293 293 292 291
303 301 305 307 307 305 308 308 308 307 307 305 301 300 300 298 296 295 292 294 294 293 293 293 294 292 293 293 292 291 290 290 287 287 287 288 289 290 290 291 292 292 291 290
Wind_Speed
18 19 15 12 8 6 5 7 9 9 10 10 13 17 24 24 20 20 16 13 14 13 14 12 10 8 7 6 6 4 2 4 5 5 5 4 5 6 6 5 5 6 6 5
13 15 18 14 11 10 5 5 6 5 8 4 7 12 15 22 21 19 15 13 12 13 15 13 12 10 8 6 5 3 2 3 4 4 5 4 4 5 3 4 5 6 6 6
7 12 7 7 19 10 5 6 8 8 9 10 8 16 20 19 18 16 14 15 15 16 15 12 11 11 8 7 5 4 2 3 5 3 2 1 2 1 2 4 4 6 7 6
5 6 6 13 8 10 10 7 6 6 12 15 19 12 14 17 14 15 14 16 15 12 9 9 7 7 7 6 5 3 1 4 2 2 1 2 2 4 5 4 4 6 7 7
4 5 8 11 2 7 8 10 7 13 14 15 11 11 4 9 12 16 18 15 10 9 11 11 10 8 7 5 4 3 3 1 2 1 2 2 4 6 5 4 4 4 5 4
1 4 12 3 5 2 6 7 2 15 23 23 12 7 5 8 14 12 13 13 14 13 12 10 7 7 7 5 4 3 2 2 2 2 2 3 5 5 4 3 5 4 3 3
9 7 9 5 3 5 8 11 6 18 19 9 7 5 10 13 13 13 15 17 15 13 10 8 7 7 7 6 5 4 2 1 3 3 4 4 4 3 4 6 5 3 4 2
3 5 14 4 3 11 8 1 11 7 6 14 19 19 16 17 16 15 17 15 13 12 8 7 7 7 7 5 4 2 1 3 3 3 4 3 4 5 7 4 2 3 2 2
11 10 5 3 5 2 4 8 5 14 14 23 21 19 17 15 16 13 15 12 10 11 8 6 6 7 7 5 4 3 2 3 4 5 5 4 4 7 5 3 2 3 0 2
5 6 7 9 5 8 4 2 8 18 22 23 21 18 21 20 12 11 12 11 7 9 7 6 6 6 4 5 4 5 3 4 3 4 6 6 4 3 3 1 3 1 1 3
6 5 4 0 5 14 11 8 13 18 23 23 20 17 17 16 14 12 11 8 9 9 7 7 6 5 6 5 5 3 2 2 4 3 4 6 4 1 1 3 3 2 3 4
3 2 1 5 2 4 18 17 17 19 17 18 20 17 16 13 12 12 11 8 7 7 7 7 6 5 5 5 5 3 1 3 4 4 4 4 4 4 6 3 3 3 7 3
1 2 3 3 10 6 17 20 18 20 19 22 17 17 15 15 9 11 11 10 9 9 7 6 6 6 5 4 4 3 3 4 4 3 4 4 4 3 4 4 4 8 9 7
6 2 6 12 2 10 14 13 11 17 17 19 19 16 15 13 14 12 10 9 7 7 7 7 7 6 5 4 3 1 3 6 3 3 3 4 2 3 3 2 2 4 5 5
5 11 5 4 6 14 12 11 18 17 21 16 16 18 15 15 12 10 7 7 8 8 7 7 7 5 4 4 3 3 4 4 4 3 3 2 3 2 3 1 1 2 3 4
5 8 13 3 5 9 10 15 14 16 15 17 18 16 15 13 9 8 8 10 10 6 7 7 6 4 5 5 4 4 4 8 4 2 3 3 3 2 1 1 1 2 3 4
9 8 10 15 12 7 9 10 13 15 15 16 16 14 15 12 11 10 8 7 8 7 7 8 6 6 5 4 4 3 3 5 6 3 2 1 3 2 2 1 1 2 3 4
3 8 7 1 13 12 12 16 16 17 16 17 16 16 15 14 11 9 10 9 10 8 7 7 6 5 4 4 4 3 3 4 3 2 2 3 3 3 1 2 1 3 4 5
6 8 14 12 9 8 11 14 13 15 14 14 14 13 13 12 11 11 10 10 9 8 3 4 8 6 4 4 5 3 3 4 4 3 3 1 2 2 2 2 2 4 5 5
15 7 10 4 8 10 9 5 12 13 12 14 14 13 12 12 12 10 9 8 6 5 6 5 6 5 3 5 8 4 5 4 5 4 4 3 2 4 4 4 3 5 5 5
4 9 10 11 7 3 9 8 10 12 11 14 15 13 13 11 12 11 9 6 3 6 7 8 6 3 3 4 5 5 4 5 5 5 5 5 6 5 4 4 4 5 6 5
6 3 7 7 9 7 7 8 9 10 12 11 12 13 14 12 9 8 6 10 4 6 5 4 3 4 3 6 5 5 4 5 5 5 5 5 5 4 4 4 4 5 6 7
8 8 5 8 11 8 7 6 9 11 12 14 15 14 13 9 9 10 7 1 5 6 5 4 4 4 6 5 5 5 5 6 5 5 5 4 4 3 3 3 4 5 7 7
5 7 7 2 7 7 7 6 6 6 9 11 12 14 15 9 5 4 8 8 10 7 5 3 4 6 7 5 5 5 5 5 5 5 4 5 4 4 4 4 5 7 8 8
5 3 3 7 8 5 6 7 9 10 12 11 9 6 8 5 10 6 8 6 8 7 6 4 6 8 5 5 5 5 5 5 5 5 5 4 4 5 5 5 6 7 8 8
3 3 4 7 5 5 5 6 9 10 10 9 7 6 7 8 9 10 7 7 6 7 5 4 4 5 5 5 6 5 5 5 5 5 5 4 5 5 5 5 6 7 7 8
5 5 5 5 5 5 6 7 10 9 9 10 9 7 10 9 8 8 8 6 5 5 5 4 5 6 5 5 5 5 5 5 5 5 5 4 5 4 5 5 6 7 7 8
Wind_Direction
235 223 230 223 217 184 221 207 162 220 199 218 187 167 164 157 154 155 164 155 169 162 148 157 148 142 140 151 156 129 134 181 214 240 254 250 257 264 280 293 282 269 280 285
275 214 220 227 212 213 197 188 243 223 238 224 124 131 150 158 157 162 170 169 171 156 151 159 153 151 157 149 138 141 178 236 269 282 270 294 292 310 310 287 281 281 289 288
279 306 190 245 231 210 208 195 176 200 204 147 139 161 163 163 167 169 164 174 162 159 164 157 150 154 148 142 147 159 214 286 313 282 256 333 355 25 330 300 289 294 298 289
251 320 239 246 182 182 203 213 131 98 149 164 161 165 167 176 163 165 167 162 161 159 135 123 126 122 118 135 155 150 344 325 327 102 109 336 355 316 293 286 298 299 299 316
190 199 282 295 268 158 163 253 193 140 139 129 124 112 3 202 178 175 162 154 138 122 121 119 124 123 125 141 123 71 347 144 222 30 333 319 324 293 273 288 299 292 314 347
186 224 233 292 218 66 76 251 85 149 157 155 148 127 224 135 135 116 110 121 116 114 112 116 125 127 129 121 109 136 174 233 319 331 263 293 277 273 266 261 269 305 349 114
225 230 283 278 196 126 161 240 167 163 165 152 118 136 129 114 101 105 115 115 112 112 122 132 136 129 113 129 151 189 197 269 313 277 274 273 277 269 286 305 318 22 86 282
119 190 251 198 291 163 212 167 130 104 130 113 119 118 120 115 106 114 116 113 115 117 126 142 135 117 133 140 186 158 43 348 311 306 310 325 305 296 303 321 351 59 174 287
181 205 217 272 174 242 186 146 160 122 128 124 123 122 119 110 121 126 123 124 125 131 134 137 141 136 139 175 149 88 74 352 329 330 327 325 310 309 317 4 174 141 11 340
118 212 196 194 244 125 26 307 128 134 136 129 126 128 131 123 136 130 126 132 135 128 133 133 142 152 151 171 124 100 47 357 350 354 321 318 318 333 344 45 120 133 11 324
252 43 61 99 257 158 133 98 137 142 144 138 135 136 133 129 130 135 136 138 145 139 142 153 159 141 158 147 117 98 38 329 323 316 324 319 323 307 296 257 191 157 240 251
182 340 203 278 18 238 153 147 165 148 135 131 129 132 133 131 137 138 148 143 139 144 144 166 170 152 155 138 124 118 290 297 282 305 323 314 324 339 24 101 61 210 242 243
166 293 45 295 40 71 153 147 158 143 139 128 131 135 134 136 136 140 143 143 149 162 160 161 153 145 151 158 125 171 243 281 298 316 315 324 347 27 96 317 307 297 299 315
60 33 17 14 87 95 117 124 138 137 137 132 133 131 135 131 131 134 147 152 144 143 143 143 135 143 164 148 117 355 307 299 286 296 311 335 65 121 134 134 278 308 339 345
84 87 44 297 73 84 79 107 134 131 133 134 136 126 128 130 137 149 140 131 133 132 130 124 123 136 130 101 80 30 357 338 323 298 288 39 120 147 143 170 324 323 316 318
117 112 107 77 105 129 103 212 140 142 129 133 126 128 133 131 130 122 125 133 128 136 131 126 130 143 103 77 36 12 341 319 310 321 313 64 147 160 122 52 30 351 322 301
150 155 147 129 117 191 182 155 130 123 127 120 119 125 126 121 119 121 121 119 115 119 123 125 132 124 104 83 52 10 342 321 343 339 38 131 167 178 209 174 123 325 296 283
70 134 118 258 177 190 169 148 139 133 133 132 128 130 128 128 137 128 118 107 102 96 111 126 126 124 93 70 46 14 351 355 354 30 11 112 178 229 287 144 115 332 309 304
95 149 200 258 194 144 134 128 131 126 130 125 122 132 133 133 132 127 123 124 123 118 182 142 128 99 64 37 33 12 13 9 16 22 56 196 265 346 26 102 43 328 319 314
162 176 227 220 122 105 95 94 119 128 131 128 129 134 131 130 130 128 132 135 153 148 151 134 94 83 65 21 26 39 50 42 39 14 3 13 340 42 74 68 25 333 320 313
60 118 134 120 86 85 110 124 131 131 143 140 139 140 135 124 124 125 108 103 131 131 120 100 110 90 62 30 42 44 57 46 39 18 2 25 55 52 49 29 2 329 320 318
19 24 141 131 121 105 124 137 127 130 131 131 130 130 125 122 112 80 83 144 165 144 110 99 85 56 56 50 49 70 43 46 33 24 33 51 56 49 27 11 343 325 322 341
35 14 65 144 138 144 114 110 134 136 137 140 142 139 135 141 137 125 126 156 122 111 105 97 89 76 63 63 80 71 55 42 32 44 57 62 54 35 18 354 333 328 344 345
44 34 351 32 107 105 131 153 132 112 122 126 125 133 131 117 61 53 101 120 123 112 106 103 73 56 80 92 84 72 60 49 44 42 53 58 37 8 4 347 343 352 347 346
36 32 10 65 101 107 125 143 105 102 94 103 104 103 115 126 134 147 121 117 120 106 101 77 63 72 87 102 89 75 65 58 51 47 42 38 13 0 357 354 358 357 349 350
52 63 67 51 74 100 104 112 124 133 121 112 83 92 95 105 117 117 117 113 108 107 94 74 81 85 86 94 88 78 66 55 52 42 38 26 12 10 7 354 357 357 352 349
29 53 69 71 39 59 100 118 123 132 126 119 116 119 123 117 112 113 113 110 105 101 95 70 72 83 88 87 88 84 73 68 62 49 28 19 11 6 9 358 352 354 353 348